QPF
0.00 0.00 0.01 0.01 0.01 0.01 0.01 0.00 0.00 0.00 0.00 0.00 0.00 0.00 0.00 0.00 0.01 0.01 0.01 0.02 0.02 0.02 0.01 0.02 0.02 0.03 0.03 0.03 0.02 0.02 0.02 0.03 0.04 0.04 0.05 0.07 0.07 0.05
0.01 0.01 0.01 0.00 0.00 0.01 0.01 0.00 0.00 0.00 0.00 0.00 0.00 0.00 0.00 0.00 0.01 0.02 0.02 0.02 0.04 0.03 0.02 0.01 0.01 0.01 0.01 0.01 0.02 0.02 0.03 0.03 0.04 0.04 0.04 0.06 0.08 0.05
0.01 0.01 0.01 0.00 0.00 0.01 0.01 0.00 0.00 0.00 0.00 0.00 0.00 0.00 0.01 0.01 0.01 0.02 0.02 0.02 0.03 0.05 0.03 0.02 0.02 0.02 0.01 0.01 0.01 0.02 0.02 0.03 0.03 0.05 0.05 0.06 0.08 0.07
0.00 0.01 0.01 0.01 0.01 0.01 0.01 0.00 0.00 0.00 0.00 0.00 0.00 0.00 0.01 0.02 0.02 0.03 0.02 0.02 0.03 0.05 0.05 0.03 0.03 0.02 0.01 0.01 0.01 0.01 0.02 0.02 0.03 0.04 0.05 0.05 0.07 0.07
0.01 0.01 0.00 0.01 0.01 0.01 0.01 0.00 0.00 0.00 0.01 0.01 0.00 0.00 0.01 0.03 0.02 0.03 0.04 0.02 0.02 0.03 0.04 0.04 0.04 0.03 0.02 0.02 0.02 0.02 0.01 0.02 0.02 0.03 0.05 0.05 0.05 0.06
0.01 0.01 0.01 0.01 0.01 0.01 0.01 0.01 0.01 0.01 0.01 0.01 0.01 0.00 0.01 0.02 0.02 0.02 0.03 0.02 0.02 0.02 0.03 0.03 0.03 0.03 0.02 0.02 0.02 0.02 0.01 0.01 0.01 0.02 0.04 0.04 0.03 0.04
0.01 0.02 0.02 0.02 0.02 0.02 0.02 0.02 0.02 0.01 0.01 0.01 0.01 0.01 0.01 0.02 0.02 0.01 0.01 0.02 0.02 0.02 0.02 0.01 0.01 0.01 0.01 0.02 0.03 0.03 0.02 0.02 0.02 0.02 0.03 0.03 0.02 0.02
0.01 0.01 0.01 0.02 0.02 0.02 0.02 0.02 0.02 0.02 0.02 0.01 0.01 0.01 0.01 0.01 0.01 0.01 0.02 0.02 0.02 0.01 0.03 0.03 0.03 0.03 0.02 0.02 0.03 0.03 0.03 0.03 0.02 0.02 0.02 0.01 0.01 0.01
0.01 0.01 0.00 0.01 0.01 0.02 0.01 0.01 0.01 0.02 0.02 0.01 0.02 0.02 0.01 0.01 0.01 0.01 0.02 0.02 0.02 0.01 0.02 0.04 0.04 0.05 0.03 0.02 0.03 0.02 0.03 0.02 0.02 0.01 0.01 0.01 0.00 0.00
0.01 0.01 0.01 0.01 0.02 0.02 0.01 0.01 0.01 0.01 0.01 0.01 0.02 0.02 0.02 0.01 0.01 0.01 0.02 0.02 0.02 0.02 0.01 0.02 0.02 0.02 0.02 0.02 0.02 0.03 0.03 0.02 0.02 0.01 0.01 0.00 0.00 0.00
0.02 0.01 0.01 0.01 0.02 0.03 0.02 0.01 0.01 0.01 0.00 0.00 0.01 0.01 0.01 0.01 0.01 0.02 0.03 0.03 0.03 0.03 0.03 0.02 0.02 0.02 0.02 0.02 0.02 0.01 0.02 0.03 0.02 0.02 0.01 0.00 0.00 0.00
0.03 0.02 0.01 0.01 0.01 0.03 0.04 0.02 0.01 0.01 0.00 0.00 0.00 0.00 0.00 0.01 0.01 0.01 0.02 0.03 0.03 0.04 0.04 0.03 0.03 0.02 0.02 0.02 0.01 0.01 0.02 0.03 0.02 0.02 0.01 0.01 0.00 0.00
0.03 0.03 0.03 0.03 0.02 0.02 0.04 0.03 0.02 0.01 0.01 0.01 0.00 0.00 0.00 0.00 0.01 0.01 0.01 0.02 0.03 0.03 0.03 0.02 0.02 0.02 0.02 0.02 0.02 0.02 0.02 0.02 0.02 0.01 0.01 0.01 0.00 0.00
0.02 0.02 0.02 0.03 0.04 0.03 0.03 0.03 0.02 0.01 0.01 0.01 0.00 0.00 0.00 0.00 0.00 0.00 0.01 0.01 0.02 0.03 0.03 0.03 0.03 0.03 0.02 0.02 0.02 0.02 0.02 0.02 0.01 0.01 0.01 0.01 0.00 0.00
0.01 0.01 0.01 0.02 0.03 0.03 0.03 0.04 0.03 0.01 0.00 0.00 0.00 0.00 0.00 0.00 0.00 0.00 0.00 0.01 0.00 0.01 0.01 0.02 0.03 0.03 0.02 0.01 0.01 0.01 0.02 0.02 0.01 0.01 0.01 0.01 0.00 0.00
0.01 0.01 0.01 0.01 0.02 0.02 0.02 0.03 0.03 0.02 0.01 0.01 0.01 0.00 0.00 0.01 0.01 0.01 0.02 0.01 0.01 0.01 0.01 0.01 0.01 0.02 0.02 0.01 0.01 0.01 0.01 0.01 0.01 0.01 0.01 0.01 0.00 0.01
0.01 0.01 0.01 0.01 0.01 0.01 0.01 0.01 0.02 0.02 0.02 0.01 0.01 0.01 0.02 0.01 0.02 0.02 0.02 0.01 0.01 0.01 0.01 0.01 0.01 0.01 0.01 0.01 0.01 0.01 0.01 0.01 0.01 0.01 0.01 0.01 0.01 0.01
0.01 0.01 0.01 0.01 0.01 0.01 0.01 0.01 0.02 0.02 0.03 0.03 0.02 0.02 0.02 0.02 0.02 0.03 0.02 0.01 0.01 0.01 0.01 0.00 0.01 0.02 0.01 0.01 0.01 0.01 0.01 0.01 0.01 0.01 0.01 0.01 0.01 0.01
0.02 0.01 0.01 0.01 0.01 0.01 0.01 0.02 0.02 0.04 0.04 0.04 0.04 0.03 0.02 0.02 0.02 0.02 0.01 0.01 0.01 0.01 0.01 0.01 0.01 0.02 0.01 0.01 0.01 0.01 0.01 0.01 0.01 0.01 0.01 0.01 0.01 0.01
0.02 0.02 0.01 0.01 0.01 0.01 0.01 0.02 0.02 0.03 0.04 0.05 0.05 0.04 0.04 0.03 0.03 0.03 0.02 0.02 0.02 0.01 0.01 0.01 0.01 0.01 0.01 0.01 0.01 0.01 0.01 0.01 0.01 0.01 0.00 0.00 0.00 0.01
0.03 0.02 0.02 0.01 0.01 0.01 0.01 0.01 0.01 0.02 0.02 0.03 0.03 0.03 0.02 0.02 0.03 0.03 0.02 0.02 0.02 0.01 0.01 0.01 0.01 0.01 0.02 0.02 0.02 0.01 0.01 0.01 0.01 0.01 0.01 0.01 0.00 0.00
0.02 0.02 0.02 0.01 0.01 0.02 0.02 0.01 0.01 0.01 0.01 0.01 0.02 0.02 0.02 0.02 0.02 0.02 0.01 0.01 0.01 0.01 0.01 0.01 0.01 0.01 0.02 0.02 0.01 0.01 0.01 0.01 0.01 0.01 0.01 0.01 0.01 0.01
0.01 0.02 0.01 0.01 0.02 0.02 0.02 0.02 0.02 0.02 0.02 0.02 0.02 0.02 0.02 0.02 0.02 0.02 0.02 0.02 0.02 0.02 0.02 0.01 0.01 0.02 0.02 0.02 0.02 0.02 0.02 0.02 0.02 0.02 0.01 0.01 0.01 0.01
MSLP
1014.72 1014.98 1015.24 1015.49 1015.72 1015.92 1016.10 1016.26 1016.41 1016.56 1016.72 1016.89 1017.09 1017.31 1017.55 1017.80 1018.05 1018.31 1018.57 1018.81 1019.05 1019.27 1019.48 1019.68 1019.87 1020.05 1020.22 1020.39 1020.57 1020.75 1020.95 1021.17 1021.41 1021.65 1021.90 1022.13 1022.34 1022.51
1014.10 1014.39 1014.66 1014.92 1015.15 1015.36 1015.54 1015.71 1015.87 1016.04 1016.22 1016.43 1016.66 1016.91 1017.17 1017.45 1017.72 1017.99 1018.26 1018.51 1018.76 1019.00 1019.23 1019.45 1019.67 1019.88 1020.08 1020.28 1020.48 1020.68 1020.90 1021.12 1021.36 1021.61 1021.85 1022.08 1022.28 1022.44
1013.48 1013.80 1014.10 1014.38 1014.64 1014.87 1015.07 1015.26 1015.45 1015.65 1015.87 1016.10 1016.36 1016.63 1016.91 1017.19 1017.47 1017.74 1018.00 1018.25 1018.49 1018.73 1018.97 1019.20 1019.44 1019.66 1019.88 1020.09 1020.30 1020.52 1020.74 1020.96 1021.20 1021.44 1021.68 1021.91 1022.10 1022.26
1012.85 1013.19 1013.52 1013.83 1014.12 1014.38 1014.63 1014.86 1015.09 1015.34 1015.59 1015.86 1016.14 1016.43 1016.72 1017.00 1017.27 1017.53 1017.77 1018.01 1018.24 1018.47 1018.69 1018.92 1019.15 1019.38 1019.60 1019.81 1020.02 1020.24 1020.45 1020.68 1020.91 1021.15 1021.38 1021.60 1021.80 1021.96
1012.16 1012.49 1012.84 1013.17 1013.50 1013.80 1014.10 1014.39 1014.68 1014.97 1015.28 1015.59 1015.90 1016.20 1016.50 1016.78 1017.04 1017.29 1017.51 1017.73 1017.94 1018.16 1018.37 1018.59 1018.80 1019.02 1019.22 1019.43 1019.62 1019.82 1020.03 1020.24 1020.47 1020.70 1020.94 1021.16 1021.37 1021.54
1011.37 1011.68 1012.01 1012.35 1012.69 1013.04 1013.39 1013.73 1014.08 1014.44 1014.79 1015.15 1015.49 1015.83 1016.14 1016.42 1016.68 1016.92 1017.14 1017.35 1017.55 1017.76 1017.96 1018.16 1018.36 1018.55 1018.74 1018.92 1019.10 1019.28 1019.47 1019.67 1019.88 1020.12 1020.35 1020.59 1020.80 1020.99
1010.47 1010.72 1011.00 1011.32 1011.67 1012.04 1012.42 1012.82 1013.22 1013.63 1014.04 1014.44 1014.83 1015.19 1015.52 1015.83 1016.10 1016.35 1016.58 1016.80 1017.00 1017.21 1017.41 1017.60 1017.79 1017.96 1018.13 1018.29 1018.44 1018.60 1018.77 1018.96 1019.17 1019.40 1019.65 1019.89 1020.13 1020.34
1009.49 1009.64 1009.85 1010.12 1010.44 1010.81 1011.21 1011.63 1012.08 1012.53 1012.98 1013.43 1013.85 1014.25 1014.61 1014.95 1015.25 1015.53 1015.79 1016.03 1016.26 1016.49 1016.70 1016.90 1017.09 1017.26 1017.41 1017.55 1017.69 1017.83 1017.99 1018.17 1018.38 1018.61 1018.86 1019.12 1019.38 1019.62
1008.50 1008.54 1008.65 1008.85 1009.12 1009.45 1009.84 1010.27 1010.73 1011.20 1011.68 1012.14 1012.60 1013.02 1013.42 1013.79 1014.13 1014.46 1014.76 1015.05 1015.33 1015.60 1015.84 1016.07 1016.27 1016.45 1016.60 1016.74 1016.87 1017.00 1017.15 1017.33 1017.54 1017.78 1018.05 1018.33 1018.62 1018.88
1007.59 1007.51 1007.53 1007.64 1007.84 1008.12 1008.47 1008.87 1009.31 1009.77 1010.24 1010.71 1011.16 1011.60 1012.02 1012.42 1012.81 1013.18 1013.55 1013.90 1014.24 1014.56 1014.85 1015.12 1015.35 1015.55 1015.72 1015.87 1016.00 1016.14 1016.30 1016.49 1016.71 1016.97 1017.26 1017.57 1017.88 1018.17
1006.85 1006.67 1006.60 1006.63 1006.75 1006.97 1007.25 1007.60 1007.98 1008.40 1008.83 1009.26 1009.69 1010.12 1010.54 1010.96 1011.38 1011.80 1012.22 1012.63 1013.03 1013.41 1013.77 1014.08 1014.36 1014.59 1014.79 1014.96 1015.11 1015.27 1015.45 1015.66 1015.90 1016.19 1016.51 1016.84 1017.19 1017.51
1006.30 1006.07 1005.93 1005.89 1005.95 1006.09 1006.30 1006.56 1006.87 1007.20 1007.55 1007.92 1008.30 1008.69 1009.09 1009.51 1009.94 1010.39 1010.85 1011.31 1011.77 1012.21 1012.61 1012.98 1013.29 1013.57 1013.80 1014.00 1014.18 1014.37 1014.58 1014.82 1015.11 1015.43 1015.78 1016.15 1016.52 1016.88
1005.94 1005.68 1005.50 1005.42 1005.42 1005.49 1005.62 1005.79 1005.99 1006.22 1006.48 1006.75 1007.05 1007.38 1007.74 1008.13 1008.56 1009.02 1009.50 1009.99 1010.49 1010.96 1011.41 1011.81 1012.17 1012.47 1012.74 1012.97 1013.20 1013.42 1013.67 1013.95 1014.28 1014.64 1015.03 1015.44 1015.85 1016.23
1005.66 1005.41 1005.23 1005.13 1005.08 1005.09 1005.13 1005.21 1005.31 1005.43 1005.58 1005.75 1005.96 1006.21 1006.51 1006.86 1007.26 1007.71 1008.20 1008.70 1009.21 1009.70 1010.16 1010.59 1010.97 1011.30 1011.59 1011.86 1012.12 1012.38 1012.67 1013.00 1013.36 1013.77 1014.20 1014.64 1015.08 1015.50
1005.36 1005.13 1004.97 1004.85 1004.78 1004.73 1004.71 1004.69 1004.70 1004.72 1004.76 1004.83 1004.96 1005.13 1005.37 1005.68 1006.05 1006.47 1006.94 1007.43 1007.93 1008.42 1008.88 1009.31 1009.69 1010.04 1010.35 1010.64 1010.92 1011.23 1011.56 1011.92 1012.33 1012.77 1013.24 1013.72 1014.19 1014.64
1004.92 1004.72 1004.57 1004.44 1004.34 1004.25 1004.17 1004.09 1004.01 1003.95 1003.91 1003.91 1003.96 1004.09 1004.28 1004.55 1004.88 1005.28 1005.72 1006.19 1006.66 1007.13 1007.57 1007.98 1008.35 1008.69 1009.01 1009.31 1009.62 1009.96 1010.32 1010.72 1011.17 1011.64 1012.15 1012.65 1013.15 1013.62
1004.29 1004.09 1003.93 1003.79 1003.66 1003.53 1003.40 1003.26 1003.13 1003.02 1002.93 1002.89 1002.91 1003.00 1003.16 1003.40 1003.72 1004.09 1004.50 1004.94 1005.38 1005.81 1006.22 1006.60 1006.96 1007.28 1007.60 1007.92 1008.25 1008.61 1009.00 1009.44 1009.91 1010.42 1010.95 1011.48 1011.99 1012.49
1003.49 1003.25 1003.06 1002.88 1002.71 1002.54 1002.36 1002.19 1002.03 1001.88 1001.78 1001.72 1001.74 1001.82 1001.99 1002.22 1002.52 1002.87 1003.25 1003.66 1004.07 1004.46 1004.84 1005.19 1005.52 1005.85 1006.16 1006.49 1006.85 1007.24 1007.66 1008.13 1008.64 1009.17 1009.72 1010.27 1010.80 1011.31
1002.63 1002.32 1002.06 1001.81 1001.58 1001.36 1001.14 1000.94 1000.75 1000.60 1000.50 1000.45 1000.47 1000.57 1000.74 1000.97 1001.26 1001.60 1001.96 1002.33 1002.70 1003.06 1003.41 1003.74 1004.07 1004.39 1004.73 1005.08 1005.47 1005.90 1006.37 1006.88 1007.42 1007.99 1008.56 1009.13 1009.68 1010.20
1001.89 1001.48 1001.11 1000.77 1000.46 1000.16 999.89 999.65 999.44 999.28 999.18 999.14 999.17 999.27 999.44 999.67 999.94 1000.25 1000.58 1000.92 1001.26 1001.59 1001.92 1002.25 1002.58 1002.93 1003.30 1003.71 1004.15 1004.64 1005.18 1005.74 1006.34 1006.95 1007.55 1008.15 1008.72 1009.27
1001.46 1000.92 1000.42 999.96 999.54 999.16 998.82 998.52 998.27 998.08 997.96 997.90 997.92 998.00 998.14 998.33 998.56 998.83 999.11 999.41 999.71 1000.03 1000.35 1000.69 1001.05 1001.44 1001.88 1002.36 1002.89 1003.47 1004.09 1004.74 1005.41 1006.08 1006.75 1007.39 1008.00 1008.57
1001.48 1000.80 1000.16 999.57 999.03 998.53 998.10 997.71 997.40 997.14 996.96 996.84 996.80 996.81 996.89 997.01 997.16 997.36 997.57 997.81 998.08 998.37 998.69 999.06 999.47 999.93 1000.45 1001.04 1001.68 1002.37 1003.11 1003.87 1004.64 1005.40 1006.14 1006.85 1007.52 1008.14
1002.02 1001.19 1000.42 999.69 999.01 998.40 997.84 997.34 996.92 996.56 996.27 996.05 995.89 995.79 995.75 995.75 995.80 995.88 996.01 996.17 996.39 996.66 996.99 997.38 997.85 998.40 999.03 999.73 1000.50 1001.33 1002.20 1003.09 1003.98 1004.86 1005.70 1006.49 1007.24 1007.92
Thickness
5666 5664 5662 5660 5658 5656 5653 5649 5642 5635 5634 5637 5637 5639 5638 5637 5637 5636 5635 5635 5635 5635 5634 5634 5633 5632 5632 5631 5631 5631 5631 5631 5632 5632 5632 5632 5633 5633
5662 5660 5658 5656 5654 5652 5649 5646 5643 5637 5632 5634 5633 5634 5633 5632 5631 5631 5630 5629 5629 5629 5629 5628 5628 5627 5627 5626 5626 5625 5625 5626 5626 5626 5626 5627 5627 5628
5657 5656 5654 5652 5649 5647 5645 5642 5639 5636 5630 5630 5630 5629 5628 5626 5626 5625 5624 5623 5623 5623 5623 5623 5623 5622 5622 5621 5621 5620 5620 5620 5620 5621 5621 5621 5622 5623
5653 5651 5649 5648 5645 5643 5641 5638 5636 5634 5629 5625 5624 5623 5622 5621 5620 5618 5618 5618 5617 5618 5618 5618 5618 5617 5617 5616 5615 5615 5615 5614 5614 5614 5615 5615 5616 5616
5649 5647 5645 5643 5640 5638 5636 5633 5631 5630 5626 5622 5619 5617 5616 5615 5613 5612 5611 5611 5611 5612 5612 5612 5612 5611 5611 5610 5610 5609 5609 5609 5609 5608 5608 5609 5609 5609
5645 5643 5641 5639 5637 5634 5632 5628 5626 5623 5620 5616 5613 5611 5609 5608 5606 5604 5603 5603 5604 5605 5606 5606 5605 5605 5604 5604 5604 5604 5604 5604 5603 5603 5602 5602 5602 5603
5639 5638 5637 5636 5634 5631 5629 5624 5621 5617 5613 5610 5607 5604 5601 5600 5599 5598 5596 5596 5597 5598 5598 5599 5599 5599 5598 5598 5598 5598 5598 5598 5597 5597 5596 5596 5596 5597
5633 5632 5631 5630 5629 5627 5625 5623 5619 5614 5609 5605 5601 5599 5597 5596 5594 5593 5590 5588 5588 5591 5590 5591 5592 5592 5593 5592 5592 5592 5592 5591 5591 5591 5590 5590 5591 5591
5627 5626 5625 5625 5623 5621 5619 5617 5615 5613 5610 5605 5600 5597 5595 5593 5590 5587 5585 5584 5583 5585 5584 5584 5585 5585 5586 5586 5586 5586 5585 5585 5584 5584 5584 5584 5584 5585
5621 5620 5618 5617 5617 5615 5612 5610 5608 5606 5604 5602 5599 5596 5594 5592 5589 5586 5583 5580 5579 5579 5579 5576 5577 5578 5580 5580 5580 5579 5579 5578 5578 5578 5577 5577 5578 5578
5614 5613 5612 5611 5612 5610 5607 5604 5601 5600 5599 5597 5595 5593 5590 5587 5584 5580 5575 5573 5572 5572 5571 5570 5570 5570 5571 5572 5573 5572 5572 5571 5571 5570 5570 5570 5570 5570
5606 5606 5606 5606 5606 5604 5600 5598 5595 5593 5592 5589 5587 5585 5583 5581 5579 5576 5572 5568 5565 5565 5565 5563 5562 5562 5562 5564 5565 5565 5564 5563 5563 5563 5563 5563 5562 5562
5598 5598 5599 5599 5598 5597 5595 5593 5591 5589 5585 5582 5580 5577 5575 5573 5572 5570 5568 5566 5562 5560 5560 5558 5556 5554 5554 5555 5556 5557 5556 5556 5555 5555 5555 5555 5554 5553
5592 5591 5591 5592 5591 5590 5588 5586 5585 5582 5578 5575 5572 5570 5568 5566 5565 5564 5562 5560 5559 5558 5556 5554 5551 5549 5547 5546 5547 5548 5547 5547 5547 5546 5546 5546 5546 5545
5585 5585 5584 5583 5582 5580 5579 5578 5575 5572 5569 5566 5565 5564 5563 5561 5559 5556 5555 5553 5552 5551 5550 5548 5547 5544 5542 5541 5539 5539 5538 5538 5538 5538 5538 5537 5537 5538
5576 5575 5575 5574 5572 5571 5570 5568 5566 5564 5562 5560 5559 5557 5556 5553 5551 5549 5547 5545 5543 5542 5542 5542 5541 5539 5536 5535 5533 5531 5530 5529 5530 5530 5530 5530 5530 5530
5567 5565 5563 5562 5561 5560 5559 5558 5556 5555 5553 5552 5551 5549 5547 5546 5544 5542 5540 5538 5535 5535 5533 5533 5533 5532 5530 5528 5526 5525 5524 5523 5523 5522 5522 5522 5523 5523
5558 5556 5554 5553 5552 5551 5549 5548 5547 5546 5545 5544 5542 5541 5540 5538 5537 5534 5533 5531 5530 5529 5527 5525 5523 5522 5521 5521 5521 5519 5517 5516 5516 5515 5515 5514 5516 5517
5548 5547 5545 5544 5543 5542 5541 5540 5538 5537 5536 5535 5534 5533 5532 5531 5529 5527 5525 5524 5523 5522 5520 5518 5516 5514 5513 5513 5514 5513 5511 5510 5509 5508 5508 5508 5509 5512
5538 5537 5536 5535 5534 5533 5532 5531 5530 5528 5527 5527 5526 5526 5524 5523 5522 5520 5518 5516 5515 5514 5512 5510 5509 5508 5507 5507 5506 5506 5506 5504 5503 5502 5502 5502 5503 5504
5528 5527 5526 5525 5524 5523 5523 5522 5521 5521 5520 5519 5519 5518 5516 5515 5514 5512 5511 5509 5508 5506 5505 5504 5504 5503 5500 5497 5496 5498 5498 5498 5498 5497 5496 5494 5494 5495
5518 5517 5516 5515 5514 5514 5513 5513 5512 5512 5512 5512 5512 5511 5509 5508 5507 5505 5504 5502 5500 5499 5498 5497 5496 5493 5491 5490 5490 5490 5489 5489 5490 5490 5490 5490 5488 5488
5508 5507 5506 5504 5504 5504 5504 5504 5504 5504 5504 5504 5504 5503 5502 5500 5499 5498 5496 5495 5493 5492 5490 5488 5486 5485 5484 5483 5482 5482 5481 5481 5480 5480 5482 5483 5484 5485